Home > Weather > Bengaluru > Past weeks

Flag for India Weather for the Past 2 Weeks in Bengaluru, Karnataka, India

Now
91 °F

Scattered clouds.


Feels Like: 89 °F
Forecast: 75 / 96 °F
Wind: 5 mph from Southeast

Location: Bangalore / Hindustan

Current Time: May 4, 2016 at 7:22:59 PM

Latest Report: May 4, 2016 at 6:30 PM


Visibility: N/A

Pressure: 29.86 "Hg (27.08 "Hg at 876m altitude)

Humidity: 30%

Dew Point: 55 °F

Location of BengaluruLocation

Historic Weather in Bengaluru — Graph

°F

Bengaluru Temperature Yesterday

Maximum temperature yesterday: 97 °F (at 3:30 PM)
Minimum temperature yesterday: 75 °F (at 5:30 AM)
Average temperature yesterday: 88 °F

High & Low Weather Summary for the Past Weeks

 TemperatureHumidityPressure
High99 °F (Apr 23, 4:00 PM)89% (Apr 21, 6:30 AM)30.04 "Hg (Apr 21, 6:30 AM)
Low73 °F (Apr 27, 5:30 AM)18% (Apr 29, 3:30 PM)29.77 "Hg (Apr 24, 3:00 PM)
Average88 °F44%29.93 "Hg
* Reported Apr 19 5:30 PM — May 4 5:30 PM, Bengaluru, Weather by CustomWeather, © 2016

Note: Actual official high and low records may vary slightly from our data, if they occured in-between our weather recording intervals... More about our weather records

Advertising

Bengaluru Weather History for the Previous 24 Hours

Scroll right to see more
 ConditionsComfort  
Time TempWeatherWind HumidityBarometerVisibility
5:30 PM
Wed, May 4
93 °FScattered clouds.6 mph28%29.86 "HgN/A
4:30 PM95 °FPassing clouds.6 mph25%29.83 "HgN/A
4:00 PM93 °FScattered clouds.5 mph30%29.86 "HgN/A
3:30 PM95 °FScattered clouds.3 mph28%29.86 "HgN/A
3:00 PM95 °FScattered clouds.5 mph32%29.86 "HgN/A
2:30 PM93 °FScattered clouds.5 mph34%29.89 "HgN/A
1:30 PM93 °FScattered clouds.7 mph36%29.92 "HgN/A
1:00 PM91 °FScattered clouds.6 mph38%29.92 "HgN/A
12:30 PM90 °FScattered clouds.6 mph43%29.95 "HgN/A
11:30 AM90 °FScattered clouds.6 mph49%29.98 "HgN/A
11:00 AM86 °FScattered clouds.7 mph55%29.98 "HgN/A
10:30 AM86 °FScattered clouds.7 mph55%30.01 "HgN/A
10:00 AM84 °FScattered clouds.7 mph58%30.01 "HgN/A
9:30 AM84 °FScattered clouds.7 mph58%30.01 "HgN/A
9:00 AM84 °FScattered clouds.7 mph58%30.01 "HgN/A
8:30 AM82 °FScattered clouds.7 mph62%30.01 "HgN/A
8:00 AM81 °FScattered clouds.7 mph58%29.98 "HgN/A
7:30 AM81 °FScattered clouds.6 mph58%29.98 "HgN/A
7:00 AM81 °FScattered clouds.6 mph58%29.95 "HgN/A
6:30 AM79 °FScattered clouds.6 mph61%29.92 "HgN/A
6:00 AM79 °FPassing clouds.2 mph61%29.92 "HgN/A
5:30 AM79 °FPassing clouds.2 mph61%29.92 "HgN/A
11:30 PM
Tue, May 3
82 °FPassing clouds.2 mph58%29.95 "HgN/A
10:30 PM84 °FPassing clouds.3 mph51%29.95 "HgN/A
9:30 PM84 °FPassing clouds.5 mph48%29.95 "HgN/A
8:30 PM88 °FPassing clouds.5 mph38%29.92 "HgN/A
7:30 PM88 °FPassing clouds.5 mph40%29.86 "HgN/A
Weather by CustomWeather, © 2016

See weather overviewHow to use our weather pages